User: anonymous   Login
Location: Dover
(39.1580°N, 75.5250°W)
Time: 15:56:34
(UTC-05:00)
Language:

Cosmos 1437 Rocket - Orbit

View from above orbital plane
View from above orbital plane
View from above satellite
View from above satellite

Ground track
Ground track

The orbit data is extracted from the following two-line orbital elements,

1 13771U 83003B   17347.92631201 +.00000074 +00000-0 +28581-5 0  9999
2 13771 081.1764 155.8483 0041613 130.1007 230.3879 15.10132591900918
Epoch (UTC): 13 December 2017 22:13:53
Eccentricity: 0.0041613
inclination: 81.1764°
perigee height: 507 km
apogee height: 564 km
right ascension of ascending node: 155.8483°
argument of perigee: 130.1007°
revolutions per day: 15.10132591
mean anomaly at epoch: 230.3879°
orbit number at epoch: 90091

The dashed part of the orbit path shows where the satellite is in the earth's shadow,  

DLR